Billings, MT

8:53 PM MDT on April 26, 2018 (GMT -0600)
Billings Logan International

Weather History for KBIL - October, 2011

Change the Weather History Date:

Wednesday, October 19, 2011

  Actual Average Record
Temperature  
Mean Temperature 51 °F 47 °F  
Max Temperature 61 °F 58 °F 84 °F (2003)
Min Temperature 40 °F 36 °F 20 °F (1949)
Degree Days  
Heating Degree Days 14 18  
Month to date heating degree days 214 279  
Since 1 July heating degree days 302 508  
Cooling Degree Days 0 0  
Month to date cooling degree days 22 0  
Year to date cooling degree days 734 633  
Moisture  
Dew Point 32 °F    
Average Humidity 53    
Maximum Humidity 70    
Minimum Humidity 35    
Precipitation  
Precipitation 0.00 in 0.04 in 1.05 in (1957)
Month to date precipitation 1.40 0.82  
Year to date precipitation 18.61 12.17  
Snow  
Snow 0.00 in 0.20 in 3.80 in (1949)
Month to date snowfall 0.0 2.4  
Since 1 July snowfall T 3.5  
Since 1 September snowfall 0.0 3.5  
Snow Depth 0.00 in    
Sea Level Pressure  
Sea Level Pressure 30.00 in    
Wind  
Wind Speed 7 mph (SW)    
Max Wind Speed 20 mph    
Max Gust Speed 23 mph    
Visibility 10 miles    
Events      
T = Trace of Precipitation, MM = Missing Value Source: NWS Daily Summary

Daily Weather History Graph

Daily Weather History Graph

Search for Another Location

Airport or City:

Astronomy

Oct. 19, 2011 Rise Set
Actual Time 7:35 AM MDT 6:21 PM MDT
Civil Twilight 7:05 AM MDT 6:51 PM MDT
Nautical Twilight 6:31 AM MDT 7:26 PM MDT
Astronomical Twilight 5:56 AM MDT 8:00 PM MDT
Moon No Moon Rise 2:17 PM MDT (10/19)
Length of Visible Light 11h 46m
Length of Day
10h 45m
Waning Gibbous, 54% of the Moon is Illuminated
Oct 19
Waning Gibbous
Oct 19
Last Quarter
Oct 26
New
Nov 2
First Quarter
Nov 10
Full

Hourly Weather History & Observations

Time (MDT) Temp. Windchill Dew Point Humidity Pressure Visibility Wind Dir Wind Speed Gust Speed Precip Events Conditions
12:53 AM 44.6 °F 38.1 °F 28.4 °F 53% 30.19 in 10.0 mi SW 13.8 mph - N/A   Clear
1:53 AM 45.0 °F 38.5 °F 28.9 °F 53% 30.17 in 10.0 mi WSW 13.8 mph - N/A   Clear
2:53 AM 43.0 °F 35.7 °F 28.9 °F 58% 30.16 in 10.0 mi SW 15.0 mph - N/A   Clear
3:53 AM 43.0 °F 34.8 °F 28.9 °F 58% 30.13 in 10.0 mi WSW 18.4 mph - N/A   Clear
4:53 AM 42.8 °F 34.8 °F 30.2 °F 61% 30.12 in 10.0 mi WSW 17.3 mph - N/A   Clear
5:53 AM 42.1 °F 34.9 °F 30.0 °F 62% 30.11 in 10.0 mi WSW 13.8 mph - N/A   Clear
6:53 AM 39.9 °F 32.9 °F 30.0 °F 68% 30.10 in 10.0 mi WSW 11.5 mph - N/A   Clear
7:53 AM 39.9 °F 32.9 °F 30.0 °F 68% 30.09 in 10.0 mi WSW 11.5 mph - N/A   Clear
8:53 AM 42.1 °F 36.6 °F 30.0 °F 62% 30.10 in 10.0 mi WSW 9.2 mph - N/A   Clear
9:53 AM 44.6 °F 41.4 °F 30.2 °F 57% 30.04 in 10.0 mi WSW 5.8 mph - N/A   Clear
10:53 AM 48.0 °F - 30.9 °F 52% 30.04 in 10.0 mi Calm Calm - N/A   Clear
11:53 AM 53.1 °F - 32.0 °F 45% 30.00 in 10.0 mi Calm Calm - N/A   Clear
12:53 PM 55.9 °F - 30.9 °F 39% 29.97 in 10.0 mi Calm Calm - N/A   Clear
1:53 PM 57.9 °F - 32.0 °F 37% 29.92 in 10.0 mi Variable 3.5 mph - N/A   Clear
2:53 PM 57.9 °F - 33.1 °F 39% 29.91 in 10.0 mi NNE 4.6 mph - N/A   Scattered Clouds
3:53 PM 61.0 °F - 32.0 °F 34% 29.90 in 10.0 mi Calm Calm - N/A   Scattered Clouds
4:53 PM 59.0 °F - 35.1 °F 41% 29.90 in 10.0 mi Calm Calm - N/A   Scattered Clouds
5:53 PM 57.0 °F - 33.1 °F 40% 29.89 in 10.0 mi Calm Calm - N/A   Mostly Cloudy
6:53 PM 55.9 °F - 32.0 °F 40% 29.89 in 10.0 mi Calm Calm - N/A   Scattered Clouds
7:53 PM 55.0 °F - 34.0 °F 45% 29.88 in 10.0 mi South 3.5 mph - N/A   Clear
8:53 PM 51.1 °F - 37.0 °F 59% 29.90 in 10.0 mi Calm Calm - N/A   Scattered Clouds
9:53 PM 51.1 °F - 39.0 °F 63% 29.89 in 10.0 mi SSW 6.9 mph - N/A   Scattered Clouds
10:53 PM 51.1 °F - 36.0 °F 56% 29.88 in 10.0 mi SW 12.7 mph - N/A   Partly Cloudy
11:53 PM 54.0 °F - 33.1 °F 45% 29.87 in 10.0 mi SW 13.8 mph - N/A   Mostly Cloudy